Theta_e
290 290 289 290 289 289 288 287 288 287 288 287 287 287 287 287 287 287 287 287 287 287 288 287 287 288 287 288 287 288 288 288 288 288 288 288 289 292 297 299 301 303 305 308 310 311 312 313 314 315 316 317 318 318 319 319 319 320 320 321 321 322 322 323 322 323 323 323 324 325 326 328 329 329 330 333 337 339 340 341 342 343 344 344 344
290 289 289 288 288 288 288 287 286 286 286 287 287 287 286 286 287 287 287 286 286 287 287 287 287 286 287 287 287 287 287 287 287 287 288 288 288 290 295 297 299 302 303 305 308 310 311 312 313 314 315 316 316 317 318 318 318 318 318 318 319 320 320 320 321 321 322 322 323 323 324 325 326 328 329 330 332 335 337 340 340 341 342 343 344
290 289 288 288 288 288 287 287 286 286 287 286 287 287 286 286 287 286 286 286 286 286 287 286 285 286 286 286 286 287 286 287 287 287 287 287 287 288 290 294 297 299 301 303 305 308 309 310 311 312 313 315 316 317 317 316 316 316 317 317 318 319 320 320 320 321 321 322 322 323 323 323 324 325 326 328 330 331 335 337 338 340 341 341 342
289 288 288 287 287 287 286 286 286 286 287 286 287 287 286 286 287 286 286 286 286 286 287 285 284 285 285 285 286 286 286 286 286 286 286 287 287 287 287 290 294 296 299 301 304 305 307 308 309 310 312 313 314 314 315 314 314 315 316 317 318 318 319 319 319 320 320 320 321 322 322 322 323 323 324 324 325 327 330 332 336 338 339 340 341
289 289 290 287 287 287 286 287 286 286 287 287 286 285 285 285 286 286 286 285 285 285 286 285 284 284 284 285 285 285 285 285 285 285 286 286 286 286 287 288 288 293 295 297 300 302 305 306 307 308 310 311 312 312 312 313 314 314 315 316 316 317 318 319 318 318 318 318 318 319 318 319 320 321 322 323 323 324 325 327 329 334 338 339 340
288 288 287 287 287 287 286 285 285 286 286 286 284 285 285 285 285 285 289 285 284 284 284 284 283 283 284 284 284 284 285 285 285 285 285 285 285 285 286 286 287 287 289 294 297 299 303 304 305 306 307 309 309 310 311 312 312 312 313 314 315 316 317 316 316 316 317 317 317 318 318 318 319 319 320 321 322 323 324 325 326 327 333 338 339
288 288 287 287 286 286 285 285 286 286 285 285 284 284 285 285 285 284 283 283 283 285 284 283 283 283 284 284 284 285 285 285 285 285 285 285 285 285 286 286 286 287 289 288 292 296 299 302 304 305 306 307 307 308 309 309 310 311 311 313 314 315 314 314 314 315 316 316 316 317 317 318 319 320 320 321 321 322 322 323 324 325 327 330 336
288 287 287 286 286 285 285 285 285 285 285 285 285 285 284 285 285 283 282 282 283 282 283 282 283 283 284 284 284 285 284 284 284 284 284 285 285 285 286 286 286 286 292 289 289 291 298 300 303 304 304 305 306 306 306 307 308 309 310 311 311 312 312 312 313 314 314 314 314 314 315 316 317 318 319 320 321 322 322 323 323 324 325 327 328
287 287 286 285 285 285 285 285 285 284 284 284 284 285 284 285 284 284 282 281 282 281 282 282 283 283 283 283 284 284 284 284 284 284 286 284 284 284 285 285 287 292 288 287 288 288 293 297 300 302 302 303 303 303 304 305 306 308 308 308 309 309 310 310 311 311 311 311 312 313 313 314 315 316 317 318 319 321 322 323 324 324 324 325 327
287 286 285 285 285 285 285 285 285 284 283 283 283 283 283 284 282 283 282 281 281 281 282 282 283 283 283 283 283 283 283 283 284 288 284 284 284 284 285 285 286 286 287 288 288 289 289 293 297 299 299 300 299 301 302 302 305 305 306 306 307 309 309 309 310 310 310 310 311 311 312 312 313 314 315 315 317 318 320 320 321 321 323 324 325
287 286 285 285 284 284 284 284 284 284 283 283 283 284 283 282 282 281 282 282 281 282 282 283 283 282 282 283 283 283 283 283 284 283 283 283 285 288 288 287 286 287 287 288 288 288 289 289 289 289 291 296 297 299 299 301 301 301 303 305 306 308 308 309 309 309 309 309 310 310 311 312 313 313 314 315 315 316 317 318 319 319 318 321 325
286 285 285 285 284 284 284 284 284 283 283 282 282 282 282 281 281 281 281 283 283 282 282 281 281 281 282 282 282 282 282 283 283 283 284 284 283 285 285 286 286 286 287 287 288 288 288 288 290 288 287 290 295 297 297 298 297 298 300 303 305 306 308 308 308 308 308 308 309 310 311 311 312 312 313 314 315 316 316 318 318 319 319 320 322
286 285 285 286 284 283 284 283 283 283 283 283 282 282 282 281 283 284 281 280 281 280 281 281 280 279 280 280 280 282 283 284 282 282 283 283 283 283 283 283 283 283 284 286 285 285 285 287 286 286 286 286 288 293 295 295 295 296 300 302 304 306 306 306 306 306 307 308 308 309 310 310 311 312 313 314 314 315 316 317 318 320 320 321 322
286 285 285 284 283 283 283 283 283 282 283 283 282 285 283 281 281 280 281 279 279 281 282 279 277 277 277 278 278 280 282 282 282 282 282 282 282 282 282 282 282 283 283 283 283 284 284 285 285 285 286 287 287 287 288 289 291 295 298 301 303 304 304 305 305 306 306 307 308 309 310 311 312 313 313 313 314 314 314 315 316 318 320 323 323
286 285 285 284 283 283 283 283 283 283 283 282 282 282 281 281 281 280 279 280 280 282 280 280 277 278 278 277 275 277 280 279 279 281 282 282 282 282 283 282 283 283 283 283 284 284 284 284 284 285 286 286 286 286 287 289 289 293 294 295 296 299 301 303 305 305 306 307 308 310 311 311 312 312 312 313 313 314 315 315 316 317 317 320 322
285 285 285 284 283 283 283 282 282 283 282 282 281 281 280 280 280 281 280 278 277 279 282 280 279 277 276 276 276 276 275 276 277 280 281 280 281 281 281 282 282 282 283 283 283 283 283 284 284 285 285 285 286 286 286 285 289 292 292 292 292 295 298 301 303 305 306 307 307 307 308 310 311 311 313 313 314 314 315 315 315 316 317 318 319
285 285 285 284 283 283 283 282 282 282 282 281 281 281 281 281 281 281 279 278 278 277 279 280 279 280 277 276 275 275 275 275 277 278 278 279 281 281 282 282 281 282 282 282 282 283 283 283 284 284 284 285 285 285 285 286 286 289 288 290 291 292 294 300 302 304 305 306 307 307 308 308 308 309 310 311 312 313 314 315 314 315 315 316 317
285 285 284 284 283 283 282 282 282 282 282 281 281 280 280 280 280 281 279 278 278 278 277 281 280 282 279 277 278 274 275 275 276 274 278 281 280 280 280 279 279 281 281 281 281 282 284 283 283 284 284 284 284 285 285 285 286 285 285 286 292 295 295 297 300 302 304 305 306 306 305 306 307 308 309 310 312 312 313 314 314 314 315 315 315
284 284 284 284 283 282 282 282 282 281 282 281 280 280 280 280 281 279 279 282 279 277 278 278 277 279 280 280 280 280 278 277 274 276 274 276 276 278 279 279 280 280 280 280 280 281 281 282 282 282 282 283 283 283 283 283 286 287 289 290 292 294 295 295 296 298 300 302 303 304 306 307 307 308 309 310 310 311 312 313 313 314 315 315 315
284 284 284 284 283 282 282 282 281 281 282 281 281 280 280 281 281 280 280 281 279 278 277 277 276 277 279 278 279 279 278 277 277 276 275 273 275 277 278 278 278 279 280 281 280 280 280 281 281 281 281 281 282 282 282 282 282 282 284 288 291 293 294 294 295 294 295 297 301 304 305 306 307 307 308 308 309 310 311 312 312 313 314 315 314
284 284 283 283 284 282 282 281 281 281 282 281 280 280 280 280 280 279 280 279 279 279 277 277 277 276 277 276 277 276 276 276 276 277 275 273 274 274 275 277 277 278 279 280 280 280 280 281 281 282 282 282 282 281 282 281 281 282 285 288 290 292 293 293 293 293 294 295 298 300 302 304 305 306 307 307 308 309 309 310 312 312 313 314 315
283 283 283 283 283 282 282 281 281 281 282 280 280 280 280 280 280 279 279 279 279 279 278 277 278 277 277 277 276 276 276 275 275 275 275 275 273 274 275 274 274 276 278 279 279 280 280 280 280 280 280 280 281 281 281 281 281 283 284 287 289 290 290 291 292 294 294 294 295 295 298 301 303 305 306 307 308 308 309 309 310 311 312 312 313
283 283 283 283 282 282 282 281 281 281 282 280 280 280 279 279 279 279 279 279 278 278 281 278 278 277 277 277 276 276 275 275 274 275 274 273 273 274 275 275 275 274 276 278 279 279 280 280 280 280 280 280 280 280 280 280 283 285 287 287 288 288 290 292 292 292 292 293 293 294 296 297 299 301 303 305 306 307 308 308 309 309 310 311 312
283 282 282 282 282 282 282 281 281 281 281 280 280 280 279 279 278 278 278 278 278 279 278 278 277 277 277 277 277 277 277 276 276 276 275 274 274 273 274 275 275 275 277 277 278 279 279 279 279 279 279 279 280 280 281 281 282 285 285 286 287 288 290 291 290 290 291 292 292 293 295 296 297 297 299 302 304 306 307 307 308 309 310 311 311
282 282 282 282 282 281 281 281 280 280 281 280 279 279 279 279 278 278 278 278 278 278 277 277 277 277 276 277 276 277 276 276 277 276 276 276 275 273 274 275 273 274 275 276 275 277 278 278 279 279 279 279 280 280 280 281 280 283 285 284 286 286 287 288 288 289 290 291 291 292 293 295 295 296 298 300 302 304 305 305 306 307 309 310 311
283 282 283 282 282 282 282 281 281 280 280 279 279 279 279 278 278 278 278 278 277 277 277 277 276 277 276 276 276 276 275 277 276 276 275 275 274 273 273 274 274 273 275 275 275 276 276 277 278 279 278 278 279 279 279 279 279 283 284 283 283 285 286 287 289 290 290 290 291 291 291 292 294 295 296 299 301 302 303 304 305 306 307 309 311
283 283 283 282 282 282 281 280 280 279 280 279 279 279 279 278 278 277 277 277 277 277 276 276 276 276 275 276 276 276 275 276 276 275 276 275 275 274 273 271 272 273 273 275 275 275 276 276 277 277 278 279 278 278 278 277 280 284 283 281 279 283 284 287 289 289 288 289 289 290 291 291 292 294 295 295 297 298 300 302 302 303 304 305 305
283 283 283 282 282 281 281 280 280 279 279 279 279 278 278 278 277 277 277 278 277 276 276 276 276 276 275 275 275 275 276 276 276 275 275 276 275 275 274 273 271 269 272 272 273 274 276 275 275 277 277 277 278 277 280 281 279 282 282 279 279 279 283 285 286 287 289 289 290 290 291 291 291 292 293 293 294 294 295 295 296 297 297 298 299
283 283 282 282 281 281 280 280 279 279 279 279 278 278 278 277 277 276 276 277 276 276 276 275 275 275 275 275 275 275 275 275 276 276 275 275 275 275 275 273 273 270 269 270 272 272 274 274 275 275 275 276 276 278 278 276 279 280 279 279 278 278 281 284 285 287 288 289 288 289 290 290 290 291 292 292 293 294 295 295 296 296 297 298 299
283 283 282 281 281 281 280 279 279 278 278 278 278 277 277 277 277 277 276 276 276 276 276 275 275 275 275 275 275 275 275 275 275 275 275 275 275 275 274 274 274 272 271 269 270 273 274 275 276 275 274 275 276 277 277 277 280 280 278 278 278 277 282 283 284 286 287 287 287 288 289 289 289 290 291 291 292 293 294 294 294 295 296 297 299
282 281 281 281 280 280 279 279 278 278 278 278 277 277 277 276 276 276 276 276 275 275 275 275 275 275 274 274 274 274 275 274 274 274 275 275 274 274 274 274 274 274 272 271 269 272 274 274 274 275 275 275 277 276 277 277 278 279 278 277 277 280 281 281 283 284 285 285 286 286 287 288 289 289 290 290 291 292 294 294 294 294 295 296 299
281 281 281 280 280 279 279 278 278 278 277 277 277 277 276 276 276 275 275 275 275 274 274 275 275 275 274 274 274 274 274 274 274 274 273 274 274 274 273 273 273 273 273 272 270 270 274 274 274 275 276 276 275 275 275 276 278 280 277 277 277 280 278 277 280 282 283 284 286 286 287 288 288 289 289 289 291 292 292 293 293 294 295 296 297
281 280 280 280 280 279 279 278 278 277 277 277 277 276 276 275 275 275 275 275 274 274 274 274 274 274 274 273 273 273 274 273 273 273 273 273 273 273 273 273 273 273 272 271 270 270 272 275 274 274 274 275 274 274 274 275 275 276 278 276 276 276 276 276 276 280 282 283 285 286 286 287 288 289 289 289 289 291 291 292 293 293 294 296 296
280 280 280 280 279 279 278 278 277 277 277 276 276 276 275 275 275 275 274 274 274 274 274 273 273 274 273 273 273 273 273 273 273 272 273 272 272 272 272 272 272 272 273 271 271 270 269 272 273 274 274 275 273 275 274 274 274 276 275 276 276 276 276 276 276 276 281 282 284 285 286 287 288 289 289 289 290 291 292 293 292 292 292 293 294
280 280 280 279 279 278 278 277 277 276 276 276 276 275 275 275 274 274 274 274 274 273 273 273 273 273 272 272 272 272 272 272 272 272 273 272 273 272 272 272 272 272 272 272 271 269 269 270 272 272 272 273 273 274 275 275 275 275 275 275 275 276 277 276 276 276 280 283 285 285 286 287 287 288 288 289 289 290 290 291 291 291 291 292 293
279 279 279 279 278 278 277 277 276 276 276 275 275 275 275 275 274 274 273 273 273 273 273 272 272 272 272 272 272 272 272 271 271 272 272 272 272 272 272 272 272 272 272 272 272 270 270 269 271 271 273 273 274 275 275 276 275 275 275 275 276 276 276 276 276 276 279 282 284 285 285 286 287 287 288 288 289 289 289 290 290 290 291 291 291
279 278 278 278 277 277 277 276 276 275 275 275 275 275 274 274 274 274 273 273 273 272 272 272 273 272 272 272 272 272 272 271 271 271 271 271 272 272 271 272 272 272 272 272 272 272 271 270 271 273 274 274 274 275 275 275 275 275 275 275 275 275 276 276 276 277 280 282 283 284 284 285 286 286 287 287 288 288 289 289 290 290 290 290 290
278 278 278 277 277 277 277 276 276 275 275 275 274 274 274 274 273 273 273 272 272 272 272 272 272 272 272 272 272 273 272 271 271 271 272 271 272 271 271 271 271 272 272 272 273 272 272 271 272 271 273 273 273 274 275 276 275 274 275 275 276 276 275 276 276 277 278 278 278 278 281 281 283 285 286 286 287 287 288 289 289 289 289 289 289
277 277 277 277 277 276 276 275 275 275 274 274 274 273 273 272 272 272 272 272 272 272 272 272 272 272 272 272 272 273 272 272 272 271 271 271 272 271 272 272 273 272 272 273 273 273 272 272 272 273 272 274 274 273 276 277 276 275 274 274 274 276 276 276 276 277 278 278 280 283 282 282 283 282 284 285 287 287 288 288 288 289 288 288 289
277 277 276 276 276 276 275 275 275 274 274 273 273 273 272 272 272 272 272 271 271 271 271 272 272 273 273 273 273 273 273 273 272 272 272 271 272 272 273 273 273 273 273 273 273 273 272 272 272 272 273 273 274 275 276 276 275 275 275 275 273 274 275 276 276 276 277 278 277 277 280 281 281 282 284 285 285 286 286 286 286 286 285 286 288
277 277 276 276 275 274 274 274 273 273 273 273 273 272 272 271 271 272 271 271 271 271 271 272 272 272 272 273 273 273 273 274 275 275 275 275 273 273 274 274 274 274 273 273 273 273 273 273 272 274 273 273 274 274 274 274 274 274 275 276 275 275 276 276 276 278 278 277 277 278 277 278 277 277 278 277 278 281 281 283 284 284 285 288 289
276 276 275 275 274 274 273 273 273 273 273 273 275 277 276 272 271 271 271 271 271 271 271 271 272 272 272 272 273 275 276 276 277 278 279 279 280 279 278 277 277 275 275 274 274 274 273 273 273 273 273 273 274 274 274 275 276 276 275 275 274 275 275 275 276 277 278 277 277 276 277 279 278 277 277 277 279 281 280 281 282 284 285 287 289
275 274 274 274 274 274 273 273 272 272 273 273 277 279 279 278 272 271 271 271 271 271 271 271 272 272 273 274 274 275 276 277 277 279 279 280 280 280 280 280 279 277 275 274 274 275 274 273 274 274 273 273 274 275 275 275 276 276 275 275 275 274 273 272 271 275 279 278 276 276 276 278 278 277 277 278 279 280 281 281 285 286 287 289 289
274 274 274 274 274 273 273 272 272 272 272 276 279 280 280 279 276 272 271 272 272 272 272 272 273 274 274 274 275 275 276 276 275 275 276 278 278 279 279 279 279 280 280 277 275 274 275 274 273 274 274 273 274 275 275 275 275 275 275 275 274 274 273 273 273 272 276 278 276 276 275 278 278 278 277 278 279 280 281 284 286 287 288 289 289
273 273 274 273 273 273 272 272 271 271 271 278 280 281 281 280 279 275 272 272 272 272 273 274 274 274 275 275 275 275 275 277 276 275 273 273 276 277 278 278 278 279 279 280 280 277 276 275 274 274 274 275 274 274 275 275 276 274 275 274 274 274 274 273 273 274 276 278 276 275 274 276 277 276 276 278 279 279 280 283 285 286 287 288 288
273 273 273 272 272 271 272 271 271 271 271 277 281 281 282 282 281 277 272 273 273 274 275 275 275 275 275 275 274 273 274 274 274 274 273 273 273 274 274 274 275 276 278 279 279 279 279 276 275 273 275 276 274 275 276 277 276 274 274 274 275 274 274 274 275 276 277 279 276 275 273 275 277 276 276 277 278 279 280 282 285 286 287 288 289
273 272 272 271 271 271 271 271 271 271 271 277 281 281 282 282 282 279 274 275 275 275 275 275 275 275 275 274 273 273 273 273 273 274 273 273 274 274 274 275 275 276 276 276 276 276 276 276 276 276 276 277 277 277 277 278 277 277 277 276 276 276 276 277 277 277 277 278 277 275 271 275 277 276 276 277 278 279 280 283 285 286 287 288 288
272 272 271 271 271 270 271 270 270 270 271 278 280 282 282 282 282 277 274 274 274 275 275 275 275 274 273 273 273 273 273 273 274 277 277 276 275 274 274 275 275 276 276 278 279 280 279 278 278 277 277 277 280 278 278 278 278 278 278 278 277 276 275 273 272 274 275 278 278 276 274 274 277 276 276 278 279 278 279 280 284 286 287 287 288
271 271 271 271 270 270 270 270 269 269 269 276 281 281 282 282 280 274 274 274 275 274 274 274 273 273 273 273 273 272 272 272 275 277 278 278 275 274 274 274 274 274 275 276 279 280 280 280 280 280 281 281 281 282 282 282 279 278 274 272 271 272 270 269 270 272 273 276 278 278 276 274 276 277 277 278 279 279 279 280 281 285 286 287 288
271 271 270 269 269 270 270 269 269 269 269 275 281 281 281 281 279 274 274 274 273 273 272 273 272 272 272 274 274 273 273 273 276 277 278 277 275 275 274 273 273 273 274 276 275 276 278 278 278 279 279 279 279 279 278 278 277 276 271 269 270 271 270 270 269 271 273 275 277 279 276 275 277 278 277 278 279 279 280 280 281 283 286 286 288
271 270 269 269 268 268 269 269 272 270 268 274 280 280 280 280 278 274 274 272 272 272 271 270 272 272 272 274 275 275 275 275 277 278 278 277 275 274 274 274 273 272 273 274 273 272 272 273 274 273 272 272 271 270 270 275 276 275 272 271 271 270 269 270 271 271 271 273 278 280 276 276 276 278 278 276 275 278 281 281 282 283 284 285 285
Wind_Speed
7 7 6 6 6 6 6 6 4 4 4 3 3 3 3 3 5 5 6 5 5 4 3 3 3 3 3 4 4 4 5 5 5 5 5 6 6 7 13 13 14 14 14 14 14 13 13 13 13 12 12 12 12 12 12 12 13 14 15 15 15 15 15 15 15 16 16 16 16 16 16 17 17 17 17 18 17 16 15 15 16 17 17 17 16
7 6 7 7 6 5 5 5 5 5 5 5 2 4 4 4 4 4 5 4 4 3 3 3 3 3 4 4 4 4 4 4 5 5 5 5 6 6 11 13 14 14 15 15 15 14 14 14 13 13 13 12 12 12 12 12 12 13 14 15 15 16 15 15 15 16 16 16 16 16 17 17 17 17 17 17 17 17 17 15 14 15 18 18 16
7 7 6 7 6 6 6 5 5 4 5 4 2 4 3 4 4 4 4 4 4 3 4 4 4 4 4 4 5 5 5 5 5 4 4 4 4 4 5 10 12 13 15 15 16 16 16 15 14 14 13 13 12 12 12 13 14 14 15 14 14 15 15 15 15 16 16 16 16 16 17 17 18 18 18 18 18 18 18 17 17 16 16 17 19
8 7 7 7 7 7 6 5 5 4 4 4 4 3 4 3 3 3 4 4 4 4 3 5 4 5 5 5 5 5 5 5 5 5 4 5 5 5 5 5 9 12 13 14 15 16 16 16 15 15 14 13 13 13 13 14 14 15 15 15 15 14 14 15 15 16 16 16 16 16 17 17 18 18 19 19 19 19 19 19 19 18 17 15 16
8 8 7 7 7 7 6 5 5 5 4 4 4 3 3 4 3 3 4 4 4 4 3 3 4 5 5 5 5 6 5 5 5 5 4 4 5 5 6 4 4 8 10 12 13 14 15 15 16 15 15 14 13 13 14 14 15 16 17 16 16 15 15 15 15 16 16 17 17 17 17 18 18 18 18 19 19 19 19 19 20 19 17 17 16
7 7 6 7 6 6 6 5 5 4 4 4 6 4 4 4 3 4 4 5 5 4 5 6 5 4 4 5 5 5 6 6 5 5 5 5 4 3 4 3 3 4 4 8 11 13 14 15 15 15 15 14 14 14 14 15 16 16 17 17 16 15 15 15 15 16 17 17 17 17 18 18 18 18 18 19 19 19 19 19 20 20 21 18 17
7 8 7 7 7 6 6 6 5 4 5 4 6 4 4 4 3 5 3 4 4 3 4 4 5 6 6 5 6 6 5 6 5 5 5 6 5 5 5 5 5 4 4 4 6 9 12 14 15 15 14 14 14 14 15 16 17 17 17 17 17 16 15 16 16 16 17 17 18 18 18 18 18 18 18 18 19 19 19 20 20 20 20 21 19
7 7 7 7 7 7 6 6 5 6 5 4 4 5 4 5 3 3 4 4 4 4 3 4 4 5 5 6 6 5 6 5 5 4 5 5 5 5 4 5 5 5 5 5 5 6 12 13 14 16 16 15 13 12 15 17 18 18 18 18 18 17 17 17 17 17 17 18 18 19 20 20 19 19 19 19 19 19 19 20 20 20 21 21 22
7 7 7 7 7 7 6 6 5 6 6 4 5 4 4 5 3 3 4 3 3 3 3 4 5 5 5 6 6 6 6 6 5 4 3 4 4 3 4 4 3 5 4 5 5 5 7 11 13 15 15 13 12 14 17 17 17 17 18 19 20 19 18 17 18 18 19 19 19 19 20 21 20 20 20 20 20 20 20 19 20 20 21 21 21
7 6 6 6 6 7 6 6 6 6 6 4 5 3 4 5 4 2 3 3 3 3 4 4 4 5 5 6 7 5 6 5 4 3 4 5 4 4 4 4 4 4 5 4 4 5 4 6 10 10 10 9 13 16 17 17 17 17 19 20 20 20 19 19 19 20 20 20 20 20 20 20 20 21 21 21 21 21 21 21 21 22 22 22 21
7 7 7 7 7 7 7 6 6 6 6 5 5 4 4 3 4 3 2 2 2 1 1 3 5 5 5 6 5 7 7 4 3 3 3 2 3 4 3 5 4 4 5 4 4 4 4 4 4 4 4 9 12 15 16 16 16 18 19 20 20 20 20 20 21 21 21 21 21 21 21 20 20 20 21 22 22 22 22 23 24 24 25 24 23
8 7 7 7 7 7 7 6 6 6 7 6 6 6 6 5 4 4 3 2 2 1 1 3 3 4 6 4 4 7 7 5 3 2 2 2 3 3 4 4 4 5 4 4 4 4 4 4 4 4 4 6 11 13 14 15 15 17 18 19 20 20 21 21 22 22 22 21 21 21 21 21 21 21 21 21 21 22 23 23 24 25 25 25 26
8 8 8 8 7 6 7 6 6 6 6 7 6 6 5 5 4 2 3 2 1 2 3 2 6 5 2 3 4 5 6 4 4 1 1 4 4 5 4 4 5 5 4 4 4 4 4 4 5 5 6 6 6 8 10 13 13 16 18 19 19 20 21 21 22 22 21 21 21 21 21 21 22 22 21 21 21 22 23 24 25 25 26 26 25
8 8 7 8 8 7 7 8 7 6 5 4 5 5 4 4 4 3 0 2 1 0 3 2 6 3 6 10 4 4 3 2 1 1 7 7 5 3 3 3 5 4 5 4 4 4 4 4 5 5 5 6 5 5 6 5 7 13 18 19 19 20 21 21 21 21 21 21 21 21 21 21 22 22 22 23 23 24 24 25 26 26 28 28 27
8 8 8 8 8 8 8 7 7 7 7 6 6 6 5 5 5 6 4 1 2 0 2 4 2 0 1 1 6 9 5 4 2 7 10 6 3 2 2 3 5 4 4 3 4 4 4 4 5 5 5 5 5 5 5 5 7 13 18 18 19 20 21 21 21 21 20 20 20 21 21 22 23 24 24 24 25 25 25 25 24 25 27 29 29
9 9 7 8 8 9 7 7 7 6 7 8 7 6 6 5 5 4 6 4 2 0 1 3 2 3 3 1 2 1 7 2 4 10 1 3 1 4 3 3 3 4 3 4 4 4 5 4 5 5 5 5 5 4 4 5 8 11 12 14 17 20 20 21 21 21 20 20 21 21 22 22 23 23 24 25 25 26 26 26 25 25 26 27 29
9 9 9 9 8 8 8 8 7 7 6 7 8 8 7 6 6 5 5 6 4 2 0 2 2 1 5 2 2 2 3 4 9 7 3 5 5 6 5 3 3 3 3 4 3 4 5 5 5 5 6 5 4 4 4 4 5 5 7 9 16 19 20 20 20 20 20 21 21 21 22 23 24 24 25 26 27 27 27 27 27 27 27 27 28
9 9 9 8 9 8 8 8 8 7 7 7 6 6 6 6 6 6 5 3 6 5 3 0 2 3 2 1 2 2 3 3 3 6 3 7 5 4 3 3 3 4 4 4 4 5 4 6 6 7 5 4 3 3 3 4 4 5 6 8 18 19 19 19 20 20 20 21 21 23 24 25 25 25 26 26 26 27 27 28 28 28 28 28 28
9 9 9 8 7 8 8 8 8 7 6 7 7 8 7 6 5 5 6 5 5 4 7 5 2 0 2 2 1 0 2 1 4 3 9 2 2 4 4 3 5 5 5 3 3 5 6 6 6 6 5 3 3 3 4 5 7 8 14 17 18 18 18 18 18 19 20 21 23 24 24 25 25 26 26 26 27 27 28 28 28 29 29 29 29
10 9 9 8 8 8 8 7 8 7 7 8 8 7 6 4 5 5 5 5 6 7 6 6 5 3 2 2 1 1 2 3 3 4 5 10 8 3 5 7 4 5 8 9 6 5 8 7 7 5 4 4 4 4 5 5 5 6 6 13 17 18 18 18 18 19 20 22 23 24 25 26 26 26 27 27 27 27 28 28 29 29 30 30 32
9 9 9 9 8 8 8 8 8 8 7 7 6 7 8 8 7 7 6 5 5 4 6 6 6 6 4 1 1 3 2 3 2 3 5 4 12 3 6 2 3 6 9 8 7 8 9 9 8 6 4 6 6 6 5 5 5 5 6 13 15 17 17 18 19 20 21 21 22 24 26 27 27 27 27 27 27 27 28 28 29 30 30 30 31
8 9 9 9 9 8 8 9 9 8 7 8 7 8 7 8 8 7 6 6 4 5 5 6 5 5 5 5 3 1 0 2 2 2 3 6 11 9 10 12 12 2 4 9 11 9 9 8 6 5 6 7 7 6 5 5 6 5 6 13 14 16 17 19 20 20 21 21 23 25 26 27 27 27 27 27 27 27 27 28 29 30 30 31 31
8 9 10 10 9 9 9 9 7 8 8 8 9 9 8 8 7 6 6 7 6 5 4 4 5 5 4 5 6 6 6 4 3 3 2 4 7 10 9 8 9 16 5 6 4 8 9 9 9 8 7 7 7 5 5 6 6 6 10 12 14 16 18 19 20 20 21 23 25 26 27 27 27 27 27 27 27 27 28 28 29 30 31 32 32
9 9 10 10 10 9 8 8 9 8 9 8 7 8 7 7 7 7 7 6 6 6 6 6 6 5 4 5 5 5 5 5 4 4 4 6 5 11 11 11 10 6 5 5 8 11 10 10 8 8 7 7 6 6 6 6 5 8 7 9 15 17 19 21 21 23 24 25 26 27 27 27 27 27 26 27 27 27 28 29 29 30 31 32 32
12 12 12 13 11 11 10 11 10 9 8 8 7 8 8 7 8 7 8 8 8 7 7 6 7 6 6 4 5 5 6 4 4 4 4 3 5 10 10 5 12 14 8 6 6 4 8 9 9 8 7 8 7 5 5 5 4 5 10 6 14 17 18 21 23 25 26 27 28 29 29 29 29 28 28 28 28 28 29 30 30 31 32 33 34
14 15 14 13 11 12 11 10 9 8 8 8 8 8 8 8 8 9 8 7 6 7 6 6 6 6 5 6 5 6 5 4 4 4 4 3 6 7 11 8 8 15 9 5 3 4 2 6 6 7 7 7 7 6 4 4 3 6 10 8 9 15 20 23 25 26 27 27 29 30 30 29 29 29 29 29 28 29 29 30 30 31 32 33 35
13 11 10 13 13 11 11 11 10 9 8 8 8 8 8 7 7 7 6 6 7 7 6 7 6 6 5 5 5 4 5 5 5 5 4 5 5 5 6 13 11 7 11 6 6 9 11 5 6 5 7 7 6 5 4 3 4 6 10 7 8 14 20 24 26 27 27 28 29 30 30 30 30 30 30 29 29 29 30 30 30 31 32 33 34
9 10 11 12 12 12 11 11 9 9 9 9 9 8 8 8 7 7 7 5 7 7 6 6 6 6 6 4 4 5 4 5 5 5 5 4 4 3 4 5 8 15 7 13 5 7 5 6 1 5 7 6 4 3 3 3 2 7 9 7 9 10 18 24 26 27 28 28 29 29 30 30 30 30 30 30 29 29 29 30 30 31 32 32 33
10 9 11 11 11 11 11 10 10 10 9 9 9 8 8 8 8 8 8 6 7 7 6 6 5 5 4 4 5 5 5 4 4 4 4 3 4 4 4 6 5 7 12 10 16 3 3 4 3 3 2 2 3 2 1 3 4 7 8 9 10 10 15 24 26 26 28 29 28 30 30 30 30 30 30 30 30 30 30 31 30 31 31 32 33
10 9 10 12 11 12 11 10 10 9 10 9 9 9 8 7 8 7 7 7 6 5 5 5 5 5 5 4 4 5 3 4 5 4 3 4 4 5 5 5 5 8 8 9 17 4 11 3 8 4 2 2 1 3 3 6 10 12 10 10 10 11 19 24 25 27 29 29 29 30 31 30 30 30 30 30 30 30 31 32 32 31 32 33 34
10 10 11 11 11 11 11 10 10 11 9 10 9 9 9 8 7 7 6 7 7 6 5 6 5 5 4 5 4 5 4 4 4 3 3 3 4 4 5 5 6 7 7 9 13 6 7 8 3 1 2 5 9 9 6 6 11 13 10 9 10 14 22 19 25 25 27 28 29 30 32 31 31 31 31 30 31 32 32 32 33 32 33 34 34
11 12 12 13 13 13 11 11 11 10 10 9 9 9 8 8 8 7 7 7 7 6 5 5 4 5 5 5 5 5 4 4 4 4 4 3 3 5 5 5 6 6 6 9 12 24 10 7 14 5 11 11 4 9 14 7 7 16 10 9 12 18 13 11 18 24 25 29 32 31 32 32 32 32 32 32 33 33 33 33 34 34 34 34 34
11 12 13 13 13 13 13 12 13 12 12 11 9 9 9 8 7 7 7 7 7 5 5 5 4 5 6 5 5 4 4 4 4 4 4 3 4 5 5 5 6 6 7 9 13 19 21 7 11 10 4 9 14 2 12 12 8 8 11 9 10 12 11 10 11 18 24 29 31 32 32 33 32 33 33 32 33 33 33 34 34 34 34 34 34
12 13 13 12 12 13 13 12 12 12 11 11 10 9 9 9 8 6 8 8 7 6 6 6 6 5 5 5 5 4 4 5 4 5 4 4 4 5 6 6 7 7 6 8 12 13 23 20 10 13 10 6 16 7 8 15 15 7 11 11 8 10 11 11 11 12 22 26 30 33 33 33 33 33 34 34 33 33 33 33 34 34 33 34 34
12 12 13 12 13 13 12 12 12 12 12 11 10 10 10 10 10 8 8 8 9 8 8 7 6 5 5 5 5 4 4 5 5 5 4 5 5 7 7 6 7 7 7 8 9 14 18 22 17 16 15 7 10 15 14 11 12 11 13 14 11 9 9 11 13 12 20 27 30 34 34 33 33 33 34 34 33 33 34 34 36 35 34 34 35
13 11 11 12 12 13 13 12 12 12 12 11 10 10 10 11 10 10 9 9 8 8 7 7 6 6 6 6 5 5 5 6 5 5 5 5 6 7 7 7 7 8 7 7 9 11 14 18 22 13 16 17 14 8 9 13 14 14 13 14 12 13 12 11 12 13 15 26 30 32 33 33 33 33 33 34 34 35 35 35 35 35 35 35 35
12 11 11 11 12 13 13 14 13 12 12 11 11 10 9 9 9 9 9 8 8 7 7 6 6 6 6 6 6 5 5 6 6 6 5 7 7 7 7 6 7 7 7 8 9 10 13 17 20 18 13 16 15 12 9 14 15 11 12 15 17 14 13 12 12 11 18 26 28 31 32 33 34 34 34 34 35 35 35 35 35 35 35 35 35
12 12 13 12 13 14 13 12 12 12 11 11 11 11 10 9 9 8 8 8 7 7 7 6 6 6 6 6 6 6 7 7 7 6 6 8 7 7 8 7 7 7 9 9 10 11 13 16 15 19 19 14 16 16 8 11 18 16 13 14 14 12 11 15 14 10 8 10 10 12 19 25 29 34 34 34 35 35 34 34 34 35 36 36 35
14 13 13 13 11 12 12 11 12 12 11 11 11 10 11 10 10 9 8 8 7 7 7 7 7 7 6 6 7 8 8 8 7 7 7 7 7 8 8 8 8 9 10 10 11 13 14 15 16 15 17 16 11 20 15 10 12 16 17 16 20 15 10 13 17 12 9 12 17 25 23 24 28 25 30 35 36 36 36 35 35 36 35 36 36
14 15 15 14 11 11 11 11 10 10 11 11 10 10 9 9 9 9 9 8 8 7 6 6 6 7 7 7 8 8 8 8 7 7 7 8 7 9 8 8 9 11 11 11 11 12 14 14 16 14 14 16 15 20 15 17 15 18 14 12 18 18 21 19 16 13 10 13 15 12 14 19 22 28 32 32 35 35 35 34 36 36 38 37 36
11 12 12 12 12 11 10 10 11 10 11 11 10 11 11 10 10 10 10 9 8 8 6 7 7 7 7 7 7 7 8 11 15 13 12 11 8 8 9 10 10 10 9 9 10 10 11 12 14 13 15 17 15 17 16 15 16 15 19 13 18 21 15 16 21 16 10 12 11 13 11 10 13 14 13 13 15 21 25 32 29 37 36 31 31
11 11 11 11 12 13 13 11 10 10 10 8 11 18 14 10 10 8 8 8 8 8 8 8 8 8 8 8 7 13 15 15 15 16 17 18 19 14 10 7 7 8 8 9 9 9 9 11 10 9 11 13 15 12 19 16 18 21 20 21 21 20 21 18 19 18 11 11 11 12 12 8 11 13 11 13 13 14 13 14 14 18 25 32 32
12 12 12 13 12 11 13 13 12 10 9 8 18 20 20 19 11 10 9 9 9 9 9 8 8 8 8 8 8 10 11 12 12 17 17 18 18 19 20 19 16 12 10 10 9 8 10 13 15 14 16 18 20 20 17 22 17 16 21 17 18 20 16 21 21 21 10 8 12 12 16 9 10 12 12 11 12 11 12 14 25 31 33 31 32
11 10 12 13 12 11 10 11 11 11 10 14 22 22 22 22 18 12 10 9 10 9 9 9 8 8 8 7 7 6 6 6 6 7 12 16 17 18 19 19 20 22 21 16 13 11 10 10 12 14 16 17 21 15 18 16 19 20 19 20 19 21 17 22 16 20 14 5 10 10 17 11 8 12 14 13 11 10 14 22 31 32 33 35 35
10 12 13 12 12 11 11 12 12 11 10 19 23 25 24 24 24 17 9 10 9 9 10 10 9 8 7 8 7 5 4 10 10 7 6 7 14 18 19 19 20 22 22 24 25 19 14 14 15 17 16 15 19 22 16 19 19 19 21 17 21 15 20 18 24 18 18 7 11 14 20 19 7 13 14 16 12 12 16 25 33 35 36 36 36
12 11 11 12 12 12 12 13 12 11 12 18 24 23 22 23 23 17 8 9 9 10 10 9 8 8 9 7 6 4 4 6 7 7 6 7 8 9 10 11 11 15 21 24 26 27 23 17 17 20 21 17 22 17 21 19 19 20 16 20 17 19 18 23 24 21 20 7 13 15 19 22 11 11 16 17 12 12 14 22 33 34 34 34 34
14 14 14 13 12 12 12 11 11 10 9 17 20 21 20 21 22 16 7 7 7 7 7 8 8 8 7 5 5 5 6 7 6 8 8 9 8 9 10 11 12 12 12 13 15 15 15 16 18 19 20 19 17 21 17 17 16 18 16 19 20 19 21 19 18 18 15 13 12 13 19 23 12 11 14 16 14 13 13 20 30 33 34 34 34
8 8 8 10 12 12 11 10 9 9 8 18 19 20 20 19 20 9 7 6 6 5 7 8 6 4 4 4 5 6 7 7 10 14 13 10 9 10 11 12 12 12 15 17 24 23 19 16 15 15 17 20 25 25 23 21 19 17 17 16 16 15 15 17 20 18 15 10 11 13 14 19 17 10 14 14 12 15 14 13 23 32 33 34 34
12 12 12 12 10 11 12 11 10 8 7 14 20 19 19 20 15 5 6 6 5 6 7 7 5 4 4 4 5 5 6 7 10 14 15 15 10 11 11 11 11 13 14 12 17 22 24 27 30 32 35 35 33 32 33 34 26 22 17 16 21 14 17 21 22 19 19 12 9 11 13 19 16 9 11 12 13 14 14 12 13 21 31 33 34
13 12 10 9 9 10 12 12 11 10 8 13 20 19 19 20 13 7 6 6 6 5 4 4 3 3 4 10 9 8 9 9 12 15 15 13 10 9 11 14 16 13 14 14 13 13 21 28 33 33 30 28 31 34 36 35 32 25 16 19 20 16 19 18 20 19 19 14 10 10 13 18 15 11 10 11 13 11 12 12 16 16 27 29 35
10 9 9 9 8 8 8 9 13 11 9 11 20 19 20 20 13 6 7 6 6 6 5 4 4 3 4 6 12 11 10 11 15 15 17 13 9 10 12 13 13 15 14 14 13 15 12 11 12 11 14 21 18 16 19 31 31 27 19 20 18 16 18 19 17 17 17 13 8 12 14 16 13 13 9 11 14 11 10 12 13 14 14 13 14
Wind_Direction
163 168 158 158 156 150 147 145 140 149 141 143 136 118 87 78 66 63 58 52 46 32 28 12 5 1 2 343 339 336 335 332 330 327 326 324 324 321 330 334 336 338 341 343 343 344 345 347 346 347 347 347 348 348 350 349 348 347 347 346 344 344 343 342 340 339 337 336 334 332 330 327 325 323 318 314 312 308 304 300 295 287 278 270 263
167 168 159 160 157 148 143 149 145 158 143 116 113 95 94 73 69 73 74 67 59 28 35 8 4 359 357 345 334 329 323 321 320 322 320 324 320 319 324 328 331 335 338 338 340 342 345 346 346 347 348 349 350 352 353 354 352 351 348 345 343 342 342 341 340 338 337 335 334 332 331 329 327 326 323 320 315 307 301 298 295 291 288 280 268
168 167 162 157 154 150 149 152 142 137 124 111 92 99 92 90 98 93 82 74 60 43 31 11 357 355 350 343 329 328 322 317 311 314 320 314 309 307 311 320 326 331 334 336 338 340 341 343 345 347 348 350 352 353 354 354 351 347 345 343 342 341 341 340 339 339 337 335 333 332 331 330 329 328 327 324 322 318 310 301 297 292 286 285 281
170 168 162 159 156 152 153 141 137 131 111 109 96 88 92 93 91 90 86 80 62 44 26 19 358 347 341 335 329 327 319 315 313 317 319 319 314 311 312 318 325 328 330 331 333 334 335 339 342 344 345 348 349 351 352 351 347 344 342 341 341 340 339 339 340 339 337 336 335 333 332 330 329 327 326 324 323 321 321 315 303 295 289 284 283
173 169 163 160 154 149 144 140 143 130 113 110 100 81 70 69 59 68 67 65 57 30 27 27 5 343 339 326 329 321 314 314 310 315 316 304 301 303 309 317 318 324 323 322 323 325 329 333 337 338 340 343 346 348 349 347 344 341 338 337 336 336 336 338 338 337 335 333 333 332 331 329 327 325 322 321 320 318 317 316 315 305 291 285 281
166 167 161 156 152 147 142 143 146 130 121 110 96 96 96 84 78 65 54 52 42 25 18 4 353 335 329 318 317 308 313 309 309 314 315 305 297 294 293 292 305 309 313 315 315 317 321 326 328 333 336 338 342 343 343 343 340 337 335 332 332 332 334 336 336 333 330 329 330 329 326 324 323 321 319 317 316 316 315 313 311 311 307 293 283
174 163 164 157 149 145 145 152 145 137 120 124 117 104 111 105 99 82 61 49 46 40 27 5 341 336 328 323 314 312 305 298 306 314 312 303 309 312 318 321 321 316 308 301 301 307 311 315 322 328 332 336 335 337 339 340 337 333 331 329 329 330 332 333 332 329 328 328 327 325 324 322 320 319 317 315 313 312 312 311 310 307 305 305 296
172 168 158 160 151 150 153 150 147 133 131 128 118 120 117 93 78 104 80 39 35 18 28 357 336 323 317 313 304 307 302 298 303 305 297 299 302 310 313 314 314 307 306 308 309 309 311 314 318 326 330 332 332 333 336 334 332 329 328 329 327 327 328 328 327 327 328 325 323 323 322 320 319 318 317 315 312 310 308 308 307 306 304 301 300
172 170 157 155 150 146 155 153 147 139 137 132 123 138 115 104 86 83 101 98 61 25 1 358 331 317 312 307 303 302 296 298 304 297 296 297 304 304 309 307 300 294 294 290 294 292 304 308 314 321 326 330 337 334 332 330 328 328 328 326 324 322 323 323 325 326 324 322 320 318 318 317 317 316 315 315 313 311 308 306 305 304 303 301 297
171 167 155 152 149 149 155 154 146 139 136 134 134 114 110 119 106 75 91 91 62 42 0 339 328 316 314 307 303 296 286 291 293 295 299 305 314 312 296 292 295 292 290 291 287 295 299 304 313 319 324 332 332 330 330 329 329 329 326 322 320 318 319 322 322 322 321 320 318 317 315 314 313 314 313 312 311 310 309 308 308 307 303 299 296
168 164 156 154 151 154 155 157 146 143 139 138 129 121 114 103 121 91 56 94 110 60 343 321 319 311 305 302 298 293 288 282 279 283 293 288 298 300 312 303 304 300 299 295 298 305 304 306 310 310 313 320 323 328 329 326 326 324 320 317 316 317 318 320 321 321 321 319 317 315 313 311 311 311 311 311 309 308 307 306 305 303 302 298 294
170 167 160 159 159 162 156 156 151 146 148 148 150 145 141 120 119 114 83 54 28 42 360 356 307 291 296 305 283 291 291 288 293 289 311 322 305 298 303 302 308 302 298 294 308 305 309 310 314 309 308 311 322 327 321 318 319 316 313 313 314 315 317 319 321 320 318 315 313 311 310 310 310 309 308 308 308 307 306 305 302 301 299 296 293
173 168 169 164 159 155 153 159 158 158 161 165 157 150 146 141 137 118 117 79 43 349 354 59 18 337 276 278 316 283 281 300 297 315 343 323 303 306 298 311 306 302 291 304 303 303 306 313 310 311 310 315 316 313 311 313 314 312 312 313 314 315 317 317 316 315 313 313 312 311 309 308 308 308 307 307 307 307 306 305 302 300 298 295 291
174 174 167 163 161 166 166 168 165 167 165 150 145 145 138 130 132 79 42 129 142 225 332 87 24 66 336 335 323 320 311 3 14 286 339 336 310 289 303 297 297 291 299 312 300 301 307 304 304 304 304 305 300 304 307 311 309 311 312 312 314 315 313 311 310 311 313 312 312 309 307 307 306 306 308 307 306 304 302 300 300 300 298 295 290
178 174 170 174 171 166 173 167 168 163 154 151 152 153 157 157 162 144 117 45 104 9 39 71 137 186 151 7 334 356 332 349 309 331 330 313 302 282 285 289 284 285 289 300 296 299 298 294 296 296 293 292 295 300 305 305 307 305 309 311 311 310 308 307 307 309 310 309 307 307 308 309 309 308 307 305 303 301 299 297 296 296 297 296 295
178 178 175 175 173 173 165 170 173 174 164 156 162 165 162 163 164 163 144 119 131 102 83 94 129 117 13 111 261 76 324 308 325 298 299 296 263 325 320 287 279 292 300 287 284 292 288 292 285 280 275 277 283 290 295 300 301 306 307 307 307 305 304 303 303 304 307 308 308 308 308 308 307 306 305 305 304 301 299 298 296 295 294 293 292
182 182 178 177 176 173 172 172 169 173 164 160 167 172 171 170 165 158 167 145 150 141 243 115 128 155 142 99 355 9 232 286 341 292 355 353 329 317 314 300 295 288 284 277 284 283 280 282 277 273 273 276 282 286 295 300 303 302 307 306 301 299 298 300 303 306 307 308 308 309 309 308 308 305 304 302 301 299 297 296 295 294 292 290 289
182 182 182 176 179 178 173 168 172 172 173 167 158 153 169 169 177 164 166 167 140 138 136 176 141 143 166 158 163 199 272 282 38 299 325 291 261 285 273 274 275 286 273 275 284 281 271 276 273 271 269 273 273 280 286 291 294 295 295 289 294 296 299 302 303 305 307 309 311 311 309 307 304 303 301 299 298 296 294 292 291 291 290 288 287
185 184 183 182 177 176 176 176 173 171 166 157 168 174 172 172 162 161 174 156 133 137 160 165 66 246 177 227 247 173 142 78 252 324 315 327 14 312 295 285 284 286 279 247 262 270 267 263 265 264 265 263 263 276 283 282 284 286 287 290 293 296 299 302 304 305 308 309 308 307 305 305 304 302 300 299 297 295 293 292 290 288 287 286 285
182 186 182 181 179 177 176 173 173 176 170 176 172 166 157 160 165 173 164 167 166 151 164 163 147 188 178 158 167 171 174 199 190 204 252 296 292 267 253 278 323 313 298 299 298 286 294 285 269 263 263 257 270 270 274 276 272 270 268 278 290 295 300 303 306 307 306 305 305 306 307 306 303 301 299 298 296 294 293 291 289 287 285 283 282
188 182 184 183 180 180 176 177 176 178 177 168 166 164 168 164 168 165 173 176 173 162 138 168 151 168 147 231 174 222 242 233 211 182 229 277 289 270 298 278 300 278 285 300 303 298 288 281 277 278 276 284 279 272 266 263 261 257 260 276 288 296 300 304 304 302 302 305 307 308 307 305 303 301 298 296 295 294 292 291 289 288 286 284 282
188 185 183 184 182 179 182 184 182 177 177 174 164 168 171 173 173 170 167 169 174 163 163 163 163 164 166 164 161 160 207 270 224 228 259 219 269 297 306 312 314 271 288 291 292 288 286 282 273 271 273 271 264 262 252 251 255 257 256 271 288 298 301 302 302 303 305 307 308 307 305 303 301 299 298 296 295 293 290 289 289 287 286 284 283
181 189 188 182 185 183 185 186 180 180 176 173 180 175 174 172 168 162 165 165 174 168 162 159 159 165 175 177 196 187 197 191 202 193 207 275 303 285 295 291 296 306 266 244 266 280 278 275 284 275 263 261 263 249 249 252 250 253 267 285 294 298 301 304 307 308 306 305 305 305 303 301 299 297 295 294 293 292 290 289 287 286 284 283 281
186 186 191 188 183 188 185 179 186 183 187 182 175 173 167 162 163 166 171 171 167 169 170 168 173 173 185 189 201 200 209 215 221 209 217 255 256 285 295 309 295 231 289 281 267 268 265 266 259 261 258 252 249 245 249 247 245 260 281 290 302 307 309 310 310 308 306 305 305 305 304 300 299 297 295 293 291 290 290 288 287 286 284 282 281
195 192 196 186 185 182 183 188 189 193 183 175 177 167 165 166 166 171 172 177 178 174 175 182 172 176 188 192 194 204 217 211 208 220 241 243 261 287 282 294 290 298 294 300 295 235 237 242 243 250 251 260 259 252 243 239 236 259 290 296 304 307 309 309 308 306 305 304 305 304 303 299 297 295 294 292 290 289 288 287 287 285 284 281 278
189 197 190 182 187 191 186 189 189 182 177 177 171 173 168 170 172 175 180 178 167 175 176 171 173 179 168 179 201 208 217 204 211 210 218 235 266 268 299 289 280 290 296 286 243 294 270 222 231 231 238 240 248 255 257 247 257 280 292 299 305 309 307 305 304 303 303 302 301 300 299 296 294 293 292 291 290 290 289 288 286 285 284 283 284
194 192 171 185 190 184 186 186 182 180 175 174 175 173 174 168 174 174 171 170 174 170 173 166 170 173 178 183 199 215 212 207 203 218 200 221 236 271 302 311 305 259 294 271 271 244 256 259 208 218 227 236 234 217 228 259 259 280 299 311 307 304 300 299 299 299 298 298 296 297 296 294 293 292 291 290 290 289 289 289 288 286 285 284 283
191 179 186 182 185 187 183 186 178 176 178 177 174 175 175 171 171 171 176 175 169 172 173 169 174 175 182 183 191 223 202 204 209 216 214 216 229 237 260 277 294 307 303 297 284 283 195 242 304 223 224 219 240 238 228 210 270 291 298 296 293 291 291 293 293 292 294 295 294 294 293 292 291 290 289 288 287 287 285 285 285 284 282 280 279
188 184 180 184 185 183 183 180 179 179 177 180 178 176 173 174 175 173 176 174 170 178 172 176 178 165 173 185 199 210 212 202 216 213 212 213 215 221 215 233 257 273 308 304 298 298 293 129 309 280 209 205 197 222 234 278 272 276 281 287 287 284 284 288 289 291 293 293 293 292 291 289 288 287 287 287 286 285 285 284 283 282 281 280 279
177 181 179 180 183 182 181 180 178 177 181 178 178 176 172 179 178 177 172 166 173 169 175 166 167 164 179 188 197 214 202 199 215 213 205 208 213 219 220 226 204 243 267 290 292 269 270 233 205 228 253 227 165 286 270 277 271 284 286 281 277 278 278 281 284 288 291 292 292 290 290 288 287 287 286 285 285 285 284 284 283 283 281 279 277
177 175 178 180 181 182 180 178 178 181 178 180 176 175 176 174 176 173 171 170 171 176 174 169 174 164 179 200 203 212 196 206 217 211 210 203 218 214 230 211 229 237 252 275 285 282 105 295 180 176 244 283 303 294 278 271 285 287 280 277 275 269 277 281 284 286 289 289 290 287 289 287 286 286 286 284 284 284 284 284 284 283 282 280 279
183 177 179 182 182 181 182 179 179 178 179 178 177 176 176 179 173 172 174 170 174 179 175 172 169 170 182 204 210 204 196 198 216 214 211 215 208 222 219 220 236 230 247 260 258 276 257 279 284 258 280 290 258 283 290 279 279 288 280 277 277 279 278 274 276 279 282 286 289 288 286 287 286 286 285 284 283 283 283 283 283 282 281 279 277
180 180 183 185 182 182 179 180 180 180 178 177 178 175 178 177 174 170 168 175 177 180 168 178 174 175 188 202 209 201 178 203 213 215 214 212 216 226 224 229 240 236 238 250 267 276 287 242 274 289 276 301 294 228 289 293 287 284 277 270 273 277 274 268 268 268 274 282 285 286 285 285 285 284 283 283 282 280 281 281 281 281 280 279 278
178 184 184 182 182 180 180 181 181 179 179 177 176 173 175 173 174 173 175 176 179 179 174 186 179 181 183 199 214 200 194 206 219 221 212 212 213 226 231 228 237 241 228 253 260 272 285 295 278 289 289 293 289 294 283 302 301 278 277 278 257 259 268 272 269 269 270 275 283 284 283 282 283 281 281 281 280 279 279 280 281 281 281 279 277
181 182 183 179 180 179 181 181 179 179 178 176 176 176 178 177 176 178 178 177 181 181 185 188 180 175 184 199 211 196 193 211 220 223 212 221 218 227 233 229 238 238 238 239 260 272 279 286 295 299 297 285 275 302 306 291 285 292 290 285 279 266 253 256 263 266 269 275 280 284 281 280 280 280 279 279 279 279 279 279 280 280 279 278 278
180 183 178 179 176 179 180 179 180 177 176 176 175 180 178 178 178 178 176 180 183 185 184 180 179 179 190 199 209 196 198 216 225 223 220 222 226 232 235 235 236 240 242 238 247 266 280 287 291 290 296 302 295 283 286 293 294 299 295 288 277 272 268 259 252 258 260 268 275 281 281 280 278 277 277 277 278 279 280 278 278 277 276 277 277
181 172 177 176 178 179 183 181 179 178 178 174 174 177 179 178 179 175 178 178 181 181 180 179 179 181 189 204 205 196 201 217 227 223 218 223 226 227 231 234 236 243 241 242 251 253 267 274 283 287 289 290 292 290 303 303 296 286 284 284 287 280 275 263 256 253 260 265 271 274 279 278 277 276 275 276 277 278 277 277 276 276 276 276 276
175 178 175 179 182 185 183 180 178 177 173 173 176 176 175 174 175 177 173 174 175 175 179 181 183 187 191 200 199 201 209 219 226 223 220 229 231 232 234 235 238 240 242 243 244 245 250 261 270 287 289 289 299 289 297 290 296 297 290 280 272 266 271 281 275 269 263 261 262 256 264 267 269 270 272 273 275 275 275 276 276 276 276 275 274
174 177 181 179 184 180 180 174 176 172 170 170 172 174 175 176 174 171 169 172 176 177 185 185 188 193 197 200 206 212 218 221 220 226 234 239 236 239 235 238 236 237 242 242 241 247 250 260 269 271 281 284 280 291 300 282 274 284 290 300 296 290 273 268 280 275 274 273 261 266 270 275 274 272 272 274 275 275 276 277 277 276 277 276 273
181 180 178 179 176 176 175 174 172 167 168 172 174 174 171 170 169 171 172 175 177 182 180 188 188 198 204 206 211 219 224 226 224 231 232 239 238 243 238 235 234 240 245 245 248 254 259 260 265 269 271 280 288 283 283 288 282 286 276 284 288 294 301 296 286 282 271 272 275 269 259 265 270 272 272 272 273 273 274 275 275 276 275 275 274
181 180 176 172 167 171 171 171 168 170 172 176 174 171 169 172 173 174 175 176 177 176 178 188 198 201 208 212 215 219 224 236 239 241 237 236 235 237 236 223 229 238 245 246 253 253 254 254 260 264 273 277 277 283 285 284 284 283 295 290 288 289 289 288 291 288 278 276 271 270 260 248 261 263 261 263 260 262 264 264 267 268 270 273 278
175 172 170 172 173 174 171 171 170 172 178 175 176 176 173 169 171 171 169 173 175 180 183 190 198 203 209 214 216 228 236 239 243 247 251 253 256 258 257 253 247 244 247 255 256 250 253 261 259 266 269 271 278 274 285 284 289 292 291 293 289 291 292 283 280 281 283 279 276 273 264 244 256 264 254 257 259 257 264 262 261 270 274 275 274
173 170 169 171 178 177 175 173 173 177 177 174 177 181 179 176 169 168 172 178 180 182 186 187 196 207 213 214 214 223 233 244 250 252 257 259 263 266 268 269 268 266 264 265 259 253 262 267 272 269 268 274 276 282 278 286 287 284 289 288 287 289 289 291 292 289 257 263 270 275 273 235 231 257 255 247 256 257 257 259 268 270 272 271 274
172 165 173 179 175 175 174 174 176 176 175 177 182 183 183 181 177 176 176 177 179 183 186 192 198 201 207 210 217 212 217 223 226 242 254 260 265 268 270 272 273 273 272 271 275 270 260 266 274 272 276 276 281 278 282 283 286 286 282 283 280 282 280 281 274 278 286 249 270 273 275 254 204 249 261 257 251 248 255 264 267 270 271 274 275
159 172 178 170 177 174 174 173 177 178 178 183 185 185 186 186 183 176 176 175 177 181 187 192 196 199 203 212 218 217 206 243 255 258 254 260 264 268 272 275 276 276 275 274 271 272 278 276 273 275 271 279 280 280 273 279 282 279 283 279 278 274 274 270 272 277 275 246 265 270 278 274 214 259 263 266 258 258 264 266 268 270 270 270 271
172 173 173 176 173 177 178 179 179 181 182 188 187 188 189 188 184 175 176 177 182 185 187 191 194 201 211 214 214 214 230 243 243 241 245 251 252 256 258 258 256 264 271 272 274 274 275 276 277 275 275 269 275 274 279 279 281 279 278 276 274 277 270 268 270 268 272 243 256 274 275 272 254 257 261 266 258 252 250 258 264 266 267 268 268
175 178 176 176 179 177 179 178 178 180 184 189 190 191 192 190 187 175 170 175 180 184 188 197 204 204 209 204 220 236 243 248 241 248 249 251 253 257 259 260 262 261 262 268 275 273 263 260 262 266 273 275 274 279 279 279 268 275 271 274 273 273 274 276 271 263 265 255 241 245 262 274 267 248 254 262 262 256 251 260 264 266 267 267 267
172 167 175 176 175 178 177 172 170 176 178 191 192 191 189 187 188 172 163 173 179 182 193 196 198 205 202 209 217 237 244 246 253 261 265 267 266 268 271 270 269 274 277 273 273 274 273 271 271 276 282 285 287 286 286 286 285 284 286 288 290 286 290 287 281 282 269 249 222 236 253 266 263 242 253 253 252 257 253 253 258 263 263 265 264
172 178 179 179 176 172 172 172 170 170 170 190 189 187 187 187 183 152 167 165 177 175 186 195 201 208 205 210 221 233 248 248 258 265 270 277 277 274 273 279 280 276 267 264 274 281 281 284 283 285 285 285 286 289 290 293 296 300 304 295 284 288 283 277 278 279 276 272 233 216 238 258 262 244 252 252 250 254 257 252 253 257 261 262 262
178 181 171 168 173 174 173 174 171 165 168 187 184 185 186 189 178 163 168 164 170 180 181 197 201 211 220 230 234 239 248 256 264 272 275 279 279 284 287 280 275 274 283 290 291 283 285 286 284 281 284 289 293 295 293 292 292 291 282 277 280 283 275 272 276 280 282 268 245 213 241 250 266 254 255 261 261 245 248 251 252 253 257 260 258
171 162 164 166 166 170 173 167 165 163 166 185 184 183 186 189 181 154 168 167 173 187 181 196 206 208 231 242 248 248 252 259 268 276 282 286 286 279 276 282 286 289 290 296 296 291 277 262 272 292 295 292 289 286 283 286 287 287 280 276 277 271 272 273 269 276 277 265 223 223 243 255 253 255 248 269 265 253 230 245 246 248 251 251 248